COSMOS 2356

Satellite information

Favourite Embed

Satellite Type and Status

PAYLOADIN ORBIT

Key statistics

Satellite COSMOS 2356 at a glance.

Uptime

9884

Days in orbit

Revolutions

≈ 12.2

Per day

Orbit

LEO

Low Earth Orbit

Inclination

82.6

Latest

Satellite identification and parameters

Extended collection of information and parameters for COSMOS 2356.

Object identification

Identified? True

Debris? False

Object name: COSMOS 2356

International designator: 1998-036E

Object number (NORAD): 25367

Object ID (CCSDS): 25367

Country: COMMONWEALTH OF INDEPENDENT STATES (CIS)

Current information (Y/N): Y

RCS size: MEDIUM

Orbital parameters

Period: 117.799 minutes

Inclination: 82.5803 deg

SMA: 7960.161 km

Apoapsis: 1865.471 km

Periapsis: 1298.58 km

RAAN: 172.2211 deg

Eccentricy: 0.035608

Argument of periapsis: 180.6817 deg

Mean anomaly: 179.3813 deg

Mean motion: 12.22418727 rev/day

Mean motion (dot): 0.00000024 rev/day2

B* drag term: 0.00010864 1/REarth

Two-line elements (TLE)

Creation date: July 6, 2025, 6:05 p.m.

Reference frame: TEME

Reference center: EARTH

Epoch: July 6, 2025, 10:19 a.m. UTC

TLE line 0: 0 COSMOS 2356

TLE line 1: 1 25367U 98036E 25187.42999874 .00000024 00000-0 10864-3 0 9992

TLE line 2: 2 25367 82.5803 172.2211 0356080 180.6817 179.3813 12.22418727207399

Live tracking on map

Real-time ground track for satellite COSMOS 2356.

In-orbit conjunctions

There are no conjunctions computed for COSMOS 2356, at the moment. Check back to stay up to date, as we update our databases every day.

Go to all conjunctions

Associated space launch

Second generation store-dump military communications satellites

COSMOS 2356 was lifted into orbit during the mission ‘Tsiklon-3 | Strela-3 119 to 124’, on board a Tsiklon-3 space rocket.

The launch took place on June 15, 1998, 10:58 p.m. from 32/1.

For more information about the launch, click the button.

Launch to space Tsiklon-3 | Strela-3 119 to 124
Tsiklon-3 | Strela-3 119 to 124

Agency: N/A

Status: Launch Successful

Launch date: June 15, 1998, 10:58 p.m. UTC

Rocket: Tsiklon-3

Launch pad: 32/1

Location: Plesetsk Cosmodrome, Russian Federation

...

Latest news about this satellite

There are no fresh news available about this satellite. Check back as we update our databases every day.


Newsletter sign-up

Weekly statistics, charts and insights to help you stay on top of the space industry.